Location: Unspecified
(35.6961°N, 0.0000°E)
Time: 18:44:37
(UTC+00:00)

Vanguard 3 - Pass Details

Date: 01 June 2019
Orbit: 508 x 3263 km, 33.3° (Epoch: 17 June)

Event Time Altitude Azimuth Distance (km) Brightness Sun altitude
Rises 22:34:18 0° 276° (W) 3,448 10.7 -28.9°
Reaches altitude 10° 22:36:25 10° 270° (W) 2,744 10.1 -29.1°
Enters shadow 22:42:11 49° 212° (SSW) 1,697 8.4 -29.5°
Maximum altitude 22:42:54 50° 196° (SSW) 1,734 - -29.5°
Drops below altitude 10° 22:54:22 10° 126° (SE) 4,733 - -30.3°
Sets 22:59:14 0° 123° (ESE) 6,177 - -30.5°
